sat.trackr.live / text

‹ back to catalog

STARLINK-31317

NORAD 58931 · 2024-027A

PAYLOAD ACTIVE UNKNOWN

§ Identity

Operator
Country
US
Launch date
2024-02-10
Launch site
AFWTR
Launch vehicle
Mass (kg)
RCS (m²)

Purposes: comms

External: N2YO · Heavens-Above · Gunter

§ Orbital elements

Epoch: 2026-09-20T00:01:39.163872Z

Period
93.85 min
Inclination
53.1579°
Eccentricity
0.0000970
Mean motion
15.34397689 rev/d
Perigee alt
462.0 km
Apogee alt
463.4 km
Semi-major
6,840.8 km
B*
7.6850e-5
RAAN
123.8549°
Arg perigee
65.2550°
Mean anomaly
294.8553°
Rev number
14,696

§ Raw data

STARLINK-313171 58931U 24027A   26263.00114773  .00002221  00000+0  76850-4 0  99992 58931  53.1579 123.8549 0000970  65.2550 294.8553 15.34397689146966

JSON: /api/v1/satellites/58931 · /tle

For live sub-satellite position, see the globe view (requires WebGL).

§ Visibility from observer

Set your observer location to see the next 7 days of passes ≥ 10°. The values pass through the URL so the page stays shareable.

No JS? Fill the form by hand. The geolocation button needs JavaScript.